Погода в Кыласове

Россия / Пермский край     57°32′50″N   56°40′14″E
темп.,
°C
ветер,
м/с
пор.,
м/с
влажн.,
%
обл.,
%
осадки,
мм/ч
давл.,
гПа
погр.,
м
20 января, чт
чт2023:00−6ю61391100 0.1 1017447
02:00−6ююз71390100 0.1 1017511
05:00−7ю71391100 0.1 1018515
08:00−7ююз61390100 0.1 1018541
11:00−7ююз6139099 0.1 1018586
14:00−7ююз6129098 0.0 1018627
17:00−8ююз6119186 0.1 1019361
20:00−9ююз61292100 0.0 1019388
21 января, пт
пт2123:00−10ююз6129398 0.1 1019395
02:00−10ююз6139395 0.0 1019407
05:00−10ююз61392100 0.1 1020387
08:00−11ююз51193100 0.0 1020313
11:00−11ююз5119388 0.0 1021329
14:00−9ююз5109387 0.0 1022399
17:00−10ююз4794100 0.0 1023181
20:00−13ю3696100 0.0 102496
22 января, сб
сб2223:00−14ю3597100 0.0 102582
02:00−16ю239889 0.0 102644
05:00−20ююв2210093 0.0 102716
08:00−20ююв22100100 0.0 102818
11:00−17ю23100100 0.1 102961
14:00−11ю239589 0.1 1029137
17:00−13вюв119860 0.1 10299
20:00−17ю1110099 0.0 10319
23 января, вс
вс2323:00−18ююв11100100 0.0 10329
02:00−19юв1110092 0.0 10339
05:00−20юв1110082 0.0 10349
08:00−20вюв1110076 0.0 10369
11:00−18юв119887 0.0 103728
14:00−10ююв1289100 0.0 1037100
17:00−11ююв1194100 0.0 103810
20:00−13ю1196100 0.0 10399
24 января, пн
пн2423:00−13ююв0096100 0.0 10399
02:00−9вюв1292100 0.0 103944
05:00−9юв1194100 0.0 104010
08:00−10юв1195100 0.0 103910
11:00−8ю2289100 0.0 103974
14:00−6ю1284100 0.0 1038118
17:00−9ююв2293100 0.0 103810
20:00−12ю2297100 0.0 103722